Location: Kalispell
(48.1967°N, 114.3128°W)
Time: 03:11:24
(UTC-06:00)

Amateur Radio Satellites - All Passes

Search period start: 23 July 2016 02:41
Search period end: 24 July 2016 02:41
Location: Kalispell, 48.1967°N, 114.3128°W

Satellite Date Start Highest point End Downlink Frequencies (MHz)
Time Altitude Azimuth
SWISSCUBE 23 Jul 02:42:47 02:47:32 64° 71° (ENE) 02:52:17 437.505
PCSat 23 Jul 02:45:10 02:46:31 11° 9° (N) 02:47:52 145.827
MOZHAYETS 4 23 Jul 02:54:10 02:56:03 12° 56° (NE) 02:57:55
KKS-1 23 Jul 02:54:56 02:56:34 12° 55° (NE) 02:58:12 437.445
GONETS M04 23 Jul 02:59:41 03:08:00 44° 69° (ENE) 03:16:18
BEESAT 23 Jul 03:04:40 03:09:29 89° 264° (W) 03:14:18 436.000
NANOSAT C BR1 23 Jul 03:05:41 03:07:25 12° 303° (WNW) 03:09:07 145.865
Cosmos 2499 23 Jul 03:07:37 03:14:55 34° 65° (ENE) 03:21:42 435.465 / 435.565
DUCHIFAT 1 23 Jul 03:12:45 03:14:02 11° 304° (NW) 03:15:20 145.980
ITAMSAT 1 23 Jul 03:22:02 03:25:06 16° 88° (E) 03:28:10 435.822/435.867
ITUPSAT 1 23 Jul 03:24:39 03:29:25 61° 258° (WSW) 03:34:12 437.325
TISAT 1 23 Jul 03:28:12 03:29:41 12° 272° (W) 03:31:10 437.305
Oscar 19 23 Jul 03:36:06 03:41:16 72° 288° (WNW) 03:46:25 437.125/150
STARS 23 Jul 03:45:09 03:48:08 18° 60° (ENE) 03:51:09 437.465
ISS 23 Jul 03:46:02 03:49:13 45° 6° (N) 03:52:22 145.825
BUGSAT 1 23 Jul 03:47:48 03:48:33 10° 304° (NW) 03:49:18 437.445
BEESAT 2 23 Jul 03:54:37 03:57:26 18° 32° (NNE) 04:00:14 435.950
BEESAT 3 23 Jul 03:57:56 04:01:19 26° 39° (NE) 04:04:41 437.485
JAS-2 23 Jul 04:15:10 04:18:04 15° 305° (NW) 04:20:59 435.910
Gurwin Techsat 1B 23 Jul 04:18:05 04:23:23 68° 289° (WNW) 04:28:39 435.225
CUSAT 1 23 Jul 04:19:28 04:22:08 16° 94° (E) 04:24:28 437.405
SWISSCUBE 23 Jul 04:22:34 04:25:46 18° 270° (W) 04:28:58 437.505
PCSat 23 Jul 04:27:42 04:32:02 23° 35° (NE) 04:36:21 145.827
MOZHAYETS 4 23 Jul 04:27:48 04:32:27 80° 75° (ENE) 04:37:07
KKS-1 23 Jul 04:27:57 04:32:24 81° 73° (ENE) 04:36:52 437.445
BEESAT 23 Jul 04:46:06 04:47:58 12° 273° (W) 04:49:49 436.000
GONETS M04 23 Jul 04:56:39 05:04:59 50° 271° (W) 05:13:22
ITAMSAT 1 23 Jul 04:59:59 05:05:13 80° 287° (WNW) 05:10:24 435.822/435.867
Cosmos 2499 23 Jul 05:00:38 05:08:34 59° 269° (W) 05:15:52 435.465 / 435.565
AO-7 23 Jul 05:01:01 05:09:04 48° 100° (E) 05:17:01 29.400- 29.500
AIST 2 23 Jul 05:15:57 05:17:39 12° 22° (NNE) 05:19:22 435.215
Oscar 19 23 Jul 05:17:25 05:19:43 13° 307° (NW) 05:22:01 437.125/150
STARS 23 Jul 05:19:45 05:24:05 59° 259° (WSW) 05:28:28 437.465
ISS 23 Jul 05:22:32 05:25:48 75° 205° (SSW) 05:29:03 145.825
BEESAT 2 23 Jul 05:31:48 05:35:50 89° 229° (SW) 05:39:50 435.950
CUBESAT XI-V 23 Jul 05:34:35 05:39:03 51° 71° (ENE) 05:43:33 437.345
BEESAT 3 23 Jul 05:35:22 05:39:12 47° 238° (WSW) 05:43:00 437.485
DANDE 23 Jul 05:36:41 05:42:25 47° 98° (E) 05:46:47 436.750
HORYU 2 23 Jul 05:40:30 05:43:40 19° 91° (E) 05:46:48 437.375
CUSAT 1 23 Jul 05:59:53 06:04:02 40° 284° (WNW) 06:07:19 437.405
Gurwin Techsat 1B 23 Jul 06:00:07 06:02:23 13° 308° (NW) 06:04:39 435.225
KKS-1 23 Jul 06:07:46 06:09:34 12° 272° (W) 06:11:23 437.445
O/OREOS (USA 219) 23 Jul 06:07:53 06:09:34 12° 40° (NE) 06:11:15 437.305
MOZHAYETS 4 23 Jul 06:08:00 06:10:12 13° 273° (W) 06:12:26
PCSat 23 Jul 06:10:42 06:16:10 89° 234° (SW) 06:21:35 145.827
NOAA 15 23 Jul 06:41:01 06:44:42 19° 90° (E) 06:48:21 137.62
ITAMSAT 1 23 Jul 06:41:08 06:43:53 15° 306° (NW) 06:46:38 435.822/435.867
STRAND 1 23 Jul 06:49:39 06:53:53 27° 62° (ENE) 06:58:07 437.568
AIST 2 23 Jul 06:53:15 06:57:14 41° 44° (NE) 07:01:11 435.215
AO-7 23 Jul 06:53:57 07:01:52 49° 301° (WNW) 07:09:44 29.400- 29.500
Cosmos 2499 23 Jul 06:57:25 06:59:41 11° 292° (WNW) 07:01:55 435.465 / 435.565
ISS 23 Jul 06:59:50 07:01:47 15° 223° (SW) 07:03:44 145.825
BEESAT 2 23 Jul 07:11:56 07:13:00 11° 251° (WSW) 07:14:04 435.950
CUBESAT XI-V 23 Jul 07:13:18 07:16:44 20° 269° (W) 07:20:11 437.345
HORYU 2 23 Jul 07:16:09 07:20:34 54° 289° (WNW) 07:24:55 437.375
GOMX 1 23 Jul 07:19:03 07:23:08 26° 94° (E) 07:27:25 467.674
Cubesat XI-IV 23 Jul 07:19:30 07:24:14 31° 95° (E) 07:28:55 437.490
DANDE 23 Jul 07:20:40 07:25:14 24° 289° (WNW) 07:28:55 436.750
BRITE-PL 23 Jul 07:30:58 07:35:33 63° 101° (ESE) 07:40:28 437.365/2234.400
DOVE 4 23 Jul 07:35:44 07:39:20 19° 90° (E) 07:43:02 437.250
NOAA 18 23 Jul 07:41:40 07:47:01 46° 99° (E) 07:52:19 137.9125
CUTE-I 23 Jul 07:44:24 07:49:37 49° 99° (E) 07:54:47 437.470
O/OREOS (USA 219) 23 Jul 07:45:27 07:49:57 62° 61° (ENE) 07:54:27 437.305
RS-15 23 Jul 07:54:24 08:04:50 43° 109° (ESE) 08:15:46 29.354- 29.394
PCSat 23 Jul 07:55:43 07:58:47 15° 256° (WSW) 08:01:50 145.827
LilacSat-2 23 Jul 08:07:08 08:11:03 89° 284° (WNW) 08:14:55 437.200
NOAA 15 23 Jul 08:19:45 08:24:59 68° 288° (WNW) 08:30:12 137.62
CINEMA 3 23 Jul 08:21:08 08:24:20 17° 88° (E) 08:27:31 145.822/145.860
Cosmos 2491 23 Jul 08:27:27 08:34:33 26° 60° (ENE) 08:41:36 435.465 / 435.565
STRAND 1 23 Jul 08:27:48 08:32:48 50° 260° (W) 08:37:50 437.568
AIST 2 23 Jul 08:32:00 08:35:36 28° 243° (WSW) 08:39:10 435.215
SEEDS 23 Jul 08:46:24 08:48:34 14° 89° (E) 08:50:42 437.485
AO-7 23 Jul 08:48:17 08:52:42 16° 325° (NW) 08:57:07 29.400- 29.500
PRISM 23 Jul 08:55:31 08:59:28 51° 71° (ENE) 09:03:27 437.425
GOMX 1 23 Jul 08:56:46 09:01:23 46° 290° (WNW) 09:06:17 467.674
Cubesat XI-IV 23 Jul 08:59:22 09:04:27 43° 293° (WNW) 09:09:28 437.490
COMPASS 1 23 Jul 09:06:26 09:08:58 16° 90° (E) 09:11:28 437.405
BRITE-PL 23 Jul 09:10:31 09:13:42 19° 298° (WNW) 09:17:02 437.365/2234.400
DOVE 4 23 Jul 09:12:28 09:17:24 65° 287° (WNW) 09:22:34 437.250
CANX-2 23 Jul 09:18:44 09:22:49 45° 98° (E) 09:26:51 2200.000
ANTELSAT 23 Jul 09:21:09 09:22:59 12° 55° (NE) 09:24:50 437.575/2403.000
HO-68 23 Jul 09:21:53 09:28:50 48° 99° (E) 09:35:43 435.675
NOAA 18 23 Jul 09:22:40 09:27:31 32° 298° (WNW) 09:32:21 137.9125
CUTE-I 23 Jul 09:24:55 09:29:26 28° 298° (WNW) 09:33:55 437.470
O/OREOS (USA 219) 23 Jul 09:25:58 09:28:51 17° 260° (W) 09:31:46 437.305
SO-50 23 Jul 09:27:34 09:31:07 20° 112° (ESE) 09:34:39 436.795
CUTE 1.7 + AOD 2 23 Jul 09:33:01 09:37:12 55° 100° (E) 09:41:20 437.475
AAUSAT CUBESAT 2 23 Jul 09:38:34 09:42:04 26° 94° (E) 09:45:33 437.432
LilacSat-2 23 Jul 09:44:03 09:44:42 10° 302° (WNW) 09:45:21 437.200
UWE-3 23 Jul 09:45:49 09:49:29 22° 91° (E) 09:53:05 435.000/436.395/437.385
ZACube-1 23 Jul 09:56:54 10:00:10 19° 90° (E) 10:03:23 437.345
CINEMA 3 23 Jul 09:56:58 10:01:57 73° 287° (WNW) 10:06:59 145.822/145.860
CUBEBUG 2 23 Jul 09:57:51 10:02:22 41° 97° (E) 10:06:47 437.445
FUNcube-1 23 Jul 09:58:33 10:01:45 19° 90° (E) 10:04:54 145.935
NOAA 15 23 Jul 10:01:38 10:03:50 13° 308° (NW) 10:06:02 137.62
TIGRISAT 23 Jul 10:01:48 10:05:35 25° 63° (ENE) 10:09:25 435.000
YUBILEINY 23 Jul 10:03:08 10:10:30 32° 81° (E) 10:17:55 435.215
RS-15 23 Jul 10:05:01 10:16:39 71° 315° (NW) 10:28:56 29.354- 29.394
UNISAT 6 23 Jul 10:16:08 10:20:19 35° 67° (ENE) 10:24:34 437.425
SEEDS 23 Jul 10:20:34 10:24:44 65° 286° (WNW) 10:28:50 437.485
Cosmos 2491 23 Jul 10:23:45 10:32:32 84° 263° (W) 10:41:18 435.465 / 435.565
PRISM 23 Jul 10:32:28 10:35:06 17° 269° (W) 10:37:44 437.425
AUBIESAT-1 23 Jul 10:33:24 10:35:25 13° 93° (E) 10:37:27 437.475
DELFI C3 23 Jul 10:39:05 10:42:08 21° 93° (E) 10:45:10 145.870
COMPASS 1 23 Jul 10:40:49 10:44:53 55° 288° (WNW) 10:48:54 437.405
Cosmos 2504 23 Jul 10:44:52 10:50:53 21° 75° (ENE) 10:56:52 435.465 / 435.565
Oscar 11 23 Jul 10:46:34 10:50:51 57° 100° (E) 10:55:06 145.826/435.025
NANOSAT C BR1 23 Jul 10:50:12 10:52:22 14° 58° (ENE) 10:54:32 145.865
DOVE 4 23 Jul 10:52:41 10:54:15 11° 305° (NW) 10:55:49 437.250
ANTELSAT 23 Jul 10:54:16 10:58:53 77° 73° (ENE) 11:03:36 437.575/2403.000
CANX-2 23 Jul 10:55:13 10:58:24 21° 297° (WNW) 11:01:34 2200.000
DUCHIFAT 1 23 Jul 10:56:26 10:58:50 15° 59° (ENE) 11:01:13 145.980
JAS-2 23 Jul 11:04:05 11:05:47 11° 51° (NE) 11:07:27 435.910
SO-50 23 Jul 11:06:17 11:11:09 70° 311° (NW) 11:16:00 436.795
QB50P1 23 Jul 11:08:45 11:11:56 21° 63° (ENE) 11:15:09 145.935-145.965
CUTE 1.7 + AOD 2 23 Jul 11:09:49 11:12:39 18° 299° (WNW) 11:15:28 437.475
HO-68 23 Jul 11:09:50 11:16:29 42° 299° (WNW) 11:23:06 435.675
AAUSAT CUBESAT 2 23 Jul 11:13:55 11:17:35 32° 292° (WNW) 11:21:15 437.432
POPSAT HIP 1 23 Jul 11:14:32 11:17:55 23° 64° (ENE) 11:21:20 437.405
UWE-3 23 Jul 11:21:41 11:26:11 47° 290° (WNW) 11:30:35 435.000/436.395/437.385
BUGSAT 1 23 Jul 11:29:33 11:31:49 15° 59° (ENE) 11:34:06 437.445
ZACube-1 23 Jul 11:32:20 11:36:47 53° 289° (WNW) 11:41:09 437.345
QB50P2 23 Jul 11:33:39 11:37:34 37° 68° (ENE) 11:41:32 145.880/145.840
FUNcube-1 23 Jul 11:33:54 11:38:21 54° 288° (WNW) 11:42:42 145.935
CUBEBUG 2 23 Jul 11:34:46 11:38:48 28° 296° (WNW) 11:42:47 437.445
M-CUBED/EXP-1 PRIME 23 Jul 11:35:49 11:40:22 57° 106° (ESE) 11:45:01 437.505
CINEMA 3 23 Jul 11:36:07 11:38:16 13° 305° (NW) 11:40:25 145.822/145.860
POLYITAN 1 23 Jul 11:36:16 11:40:12 38° 68° (ENE) 11:44:12 437.675
TIGRISAT 23 Jul 11:37:38 11:42:02 44° 262° (W) 11:46:32 435.000
HUMSAT D 23 Jul 11:49:31 11:53:43 59° 100° (E) 11:57:51 437.325/437.525
UNISAT 6 23 Jul 11:52:58 11:57:03 31° 265° (W) 12:01:13 437.425
YUBILEINY 23 Jul 11:57:56 12:06:39 67° 283° (WNW) 12:15:30 435.215
CUBEBUG 1 23 Jul 12:05:32 12:07:05 12° 87° (E) 12:08:38 437.445
AUBIESAT-1 23 Jul 12:05:49 12:10:25 90° 302° (WNW) 12:15:05 437.475
DELFI C3 23 Jul 12:13:28 12:17:07 36° 291° (WNW) 12:20:45 145.870
RS-15 23 Jul 12:20:43 12:31:39 39° 346° (NNW) 12:42:59 29.354- 29.394
Cosmos 2491 23 Jul 12:22:16 12:28:00 20° 285° (WNW) 12:33:47 435.465 / 435.565
NANOSAT C BR1 23 Jul 12:23:18 12:27:31 78° 257° (WSW) 12:31:48 145.865
Oscar 11 23 Jul 12:23:38 12:26:35 18° 299° (WNW) 12:29:32 145.826/435.025
DUCHIFAT 1 23 Jul 12:29:47 12:33:59 71° 257° (WSW) 12:38:15 145.980
ANTELSAT 23 Jul 12:33:46 12:36:11 14° 273° (W) 12:38:37 437.575/2403.000
Cosmos 2504 23 Jul 12:34:05 12:42:57 83° 96° (E) 12:51:50 435.465 / 435.565
AISAT 23 Jul 12:35:30 12:38:56 21° 93° (E) 12:42:22 437.250
QB50P1 23 Jul 12:43:22 12:47:27 46° 261° (W) 12:51:34 145.935-145.965
JAS-2 23 Jul 12:43:56 12:49:57 60° 70° (ENE) 12:55:22 435.910
SO-50 23 Jul 12:48:58 12:52:29 19° 332° (NNW) 12:55:58 436.795
POPSAT HIP 1 23 Jul 12:49:30 12:53:30 40° 262° (W) 12:57:33 437.405
DX 1 23 Jul 12:50:44 12:54:06 21° 93° (E) 12:57:26 434.975-435.025
ESTCUBE 1 23 Jul 12:51:46 12:56:08 48° 99° (E) 13:00:27 437.505/2401.250
HO-68 23 Jul 13:00:21 13:02:21 11° 322° (NW) 13:04:21 435.675
BUGSAT 1 23 Jul 13:02:37 13:06:40 68° 258° (WSW) 13:10:49 437.445
QB50P2 23 Jul 13:10:00 13:13:29 24° 266° (W) 13:17:00 145.880/145.840
M-CUBED/EXP-1 PRIME 23 Jul 13:10:59 13:14:33 23° 303° (WNW) 13:18:11 437.505
50 SAT 23 Jul 13:12:06 13:15:36 47° 100° (E) 13:19:04 437.505
UKube-1 23 Jul 13:12:27 13:16:11 27° 96° (E) 13:19:53 .
POLYITAN 1 23 Jul 13:12:40 13:16:08 24° 266° (W) 13:19:38 437.675
Oscar 19 23 Jul 13:17:57 13:22:36 36° 65° (ENE) 13:27:16 437.125/150
HUMSAT D 23 Jul 13:26:11 13:28:55 17° 299° (WNW) 13:31:38 437.325/437.525
VELOX 1 23 Jul 13:26:52 13:31:17 64° 102° (ESE) 13:35:42 145.980
CUBEBUG 1 23 Jul 13:39:34 13:43:58 83° 285° (WNW) 13:48:22 437.445
AUBIESAT-1 23 Jul 13:41:37 13:44:16 15° 308° (NW) 13:46:57 437.475
SPROUT 23 Jul 13:53:55 13:58:13 61° 101° (ESE) 14:02:29 437.525
YUBILEINY 23 Jul 13:59:56 14:05:30 18° 309° (NW) 14:11:06 435.215
Gurwin Techsat 1B 23 Jul 14:03:22 14:08:22 43° 66° (ENE) 14:13:23 435.225
AISAT 23 Jul 14:11:22 14:15:38 46° 291° (WNW) 14:19:53 437.250
AO-7 23 Jul 14:13:51 14:20:17 26° 46° (NE) 14:26:43 29.400- 29.500
DX 1 23 Jul 14:26:20 14:30:30 45° 291° (WNW) 14:34:40 434.975-435.025
ESTCUBE 1 23 Jul 14:29:13 14:32:39 22° 298° (WNW) 14:36:06 437.505/2401.250
Cosmos 2504 23 Jul 14:30:03 14:37:24 28° 299° (WNW) 14:44:45 435.465 / 435.565
JAS-2 23 Jul 14:30:33 14:35:22 24° 267° (W) 14:39:51 435.910
SO-50 23 Jul 14:33:29 14:34:50 11° 357° (N) 14:36:11 436.795
RS-15 23 Jul 14:36:46 14:48:08 41° 20° (NNE) 14:59:37 29.354- 29.394
AIST 1 23 Jul 14:37:41 14:41:47 48° 94° (E) 14:45:54
SWISSCUBE 23 Jul 14:41:17 14:43:12 12° 87° (E) 14:45:07 437.505
ITAMSAT 1 23 Jul 14:42:51 14:47:33 35° 64° (ENE) 14:52:17 435.822/435.867
50 SAT 23 Jul 14:46:44 14:48:54 15° 298° (WNW) 14:51:03 437.505
UKube-1 23 Jul 14:48:21 14:52:15 34° 294° (WNW) 14:56:10 .
Oscar 19 23 Jul 14:57:17 15:01:56 34° 264° (W) 15:06:37 437.125/150
AO-85 23 Jul 15:01:27 15:05:24 21° 112° (ESE) 15:09:13 145.980
BEESAT 23 Jul 15:02:07 15:05:20 18° 90° (E) 15:08:33 436.000
VELOX 1 23 Jul 15:04:24 15:07:19 17° 300° (WNW) 15:10:13 145.980
TISAT 1 23 Jul 15:05:01 15:09:19 85° 105° (ESE) 15:13:34 437.305
CUBEBUG 1 23 Jul 15:17:58 15:19:33 12° 304° (WNW) 15:21:08 437.445
ITUPSAT 1 23 Jul 15:21:49 15:25:51 26° 94° (E) 15:29:49 437.325
SPROUT 23 Jul 15:30:54 15:33:44 17° 299° (WNW) 15:36:33 437.525
Gurwin Techsat 1B 23 Jul 15:43:46 15:48:27 31° 265° (W) 15:53:09 435.225
Cosmos 2499 23 Jul 15:48:50 15:55:45 26° 79° (E) 16:02:32 435.465 / 435.565
AO-7 23 Jul 16:03:36 16:11:58 84° 69° (ENE) 16:20:25 29.400- 29.500
GONETS M04 23 Jul 16:05:39 16:13:37 43° 86° (E) 16:21:37
DANDE 23 Jul 16:12:07 16:14:21 23° 71° (ENE) 16:16:31 436.750
SO-50 23 Jul 16:14:25 16:17:20 16° 22° (NNE) 16:20:12 436.795
AIST 1 23 Jul 16:16:42 16:19:41 18° 293° (WNW) 16:22:41
SWISSCUBE 23 Jul 16:16:53 16:21:42 89° 276° (W) 16:26:27 437.505
KKS-1 23 Jul 16:17:11 16:18:58 12° 88° (E) 16:20:45 437.445
MOZHAYETS 4 23 Jul 16:20:34 16:23:09 15° 88° (E) 16:25:42
ITAMSAT 1 23 Jul 16:22:10 16:26:59 37° 263° (W) 16:31:51 435.822/435.867
CUSAT 1 23 Jul 16:28:19 16:30:52 39° 262° (W) 16:33:47 437.405
BEESAT 23 Jul 16:38:50 16:43:34 62° 289° (WNW) 16:48:15 436.000
AO-85 23 Jul 16:40:06 16:45:28 75° 310° (NW) 16:50:32 145.980
HORYU 2 23 Jul 16:41:40 16:45:27 28° 64° (ENE) 16:49:17 437.375
TISAT 1 23 Jul 16:42:24 16:44:21 13° 302° (WNW) 16:46:17 437.305
RS-15 23 Jul 16:50:21 17:02:46 80° 49° (NE) 17:15:06 29.354- 29.394
ITUPSAT 1 23 Jul 16:59:19 17:03:50 42° 292° (WNW) 17:08:19 437.325
STARS 23 Jul 17:06:09 17:09:22 19° 92° (E) 17:12:35 437.465
Cubesat XI-IV 23 Jul 17:08:35 17:11:05 13° 52° (NE) 17:13:35 437.490
BRITE-PL 23 Jul 17:10:33 17:12:20 12° 58° (ENE) 17:14:06 437.365/2234.400
CUTE-I 23 Jul 17:31:57 17:35:46 20° 57° (ENE) 17:39:35 437.470
NOAA 18 23 Jul 17:32:56 17:37:06 22° 57° (ENE) 17:41:16 137.9125
Cosmos 2499 23 Jul 17:39:02 17:47:59 82° 280° (W) 17:56:45 435.465 / 435.565
KKS-1 23 Jul 17:51:38 17:56:08 83° 287° (WNW) 18:00:38 437.445
SO-50 23 Jul 17:54:19 17:58:55 50° 45° (NE) 18:03:21 436.795
MOZHAYETS 4 23 Jul 17:56:15 18:00:51 71° 286° (WNW) 18:05:23
SWISSCUBE 23 Jul 17:56:18 17:58:47 14° 304° (NW) 18:01:15 437.505
AO-7 23 Jul 17:59:08 18:05:42 25° 269° (W) 18:12:19 29.400- 29.500
GONETS M04 23 Jul 18:01:57 18:10:19 50° 288° (WNW) 18:18:48
NOAA 15 23 Jul 18:04:12 18:09:08 43° 67° (ENE) 18:14:05 137.62
HO-68 23 Jul 18:11:20 18:14:45 14° 42° (NE) 18:18:08 435.675
HORYU 2 23 Jul 18:17:43 18:21:53 37° 262° (W) 18:26:06 437.375
BEESAT 23 Jul 18:19:42 18:20:24 10° 308° (NW) 18:21:07 436.000
AO-85 23 Jul 18:22:46 18:26:43 21° 330° (NNW) 18:30:30 145.980
GOMX 1 23 Jul 18:31:20 18:35:06 34° 67° (ENE) 18:38:59 467.674
STARS 23 Jul 18:41:42 18:46:02 51° 290° (WNW) 18:50:19 437.465
Cubesat XI-IV 23 Jul 18:44:52 18:50:13 70° 72° (ENE) 18:55:36 437.490
DOVE 4 23 Jul 18:45:12 18:48:39 24° 63° (ENE) 18:52:14 437.250
BRITE-PL 23 Jul 18:46:05 18:50:16 79° 257° (WSW) 18:54:27 437.365/2234.400
LilacSat-2 23 Jul 18:52:10 18:56:01 74° 74° (ENE) 18:59:55 437.200
RS-15 23 Jul 19:03:34 19:14:17 37° 254° (WSW) 19:24:54 29.354- 29.394
CUBESAT XI-V 23 Jul 19:04:27 19:09:05 78° 104° (ESE) 19:13:41 437.345
CUTE-I 23 Jul 19:09:52 19:15:15 75° 256° (WSW) 19:20:40 437.470
NOAA 18 23 Jul 19:11:43 19:17:14 71° 256° (WSW) 19:22:49 137.9125
CINEMA 3 23 Jul 19:26:19 19:29:43 21° 61° (ENE) 19:33:14 145.822/145.860
KKS-1 23 Jul 19:30:10 19:31:59 12° 304° (NW) 19:33:48 437.445
BEESAT 3 23 Jul 19:31:56 19:32:55 11° 109° (ESE) 19:33:53 437.485
SO-50 23 Jul 19:35:17 19:39:09 26° 245° (WSW) 19:42:54 436.795
Cosmos 2499 23 Jul 19:35:55 19:42:32 23° 303° (WNW) 19:49:04 435.465 / 435.565
MOZHAYETS 4 23 Jul 19:36:04 19:37:09 11° 306° (NW) 19:38:15
SEEDS 23 Jul 19:41:34 19:44:16 17° 61° (ENE) 19:46:58 437.485
NOAA 15 23 Jul 19:44:29 19:49:03 30° 265° (W) 19:53:39 137.62
HO-68 23 Jul 19:54:01 20:00:54 52° 64° (ENE) 20:07:50 435.675
COMPASS 1 23 Jul 20:00:40 20:03:33 18° 62° (ENE) 20:06:26 437.405
GONETS M04 23 Jul 20:06:13 20:09:50 13° 315° (NW) 20:13:27
AO-85 23 Jul 20:07:35 20:09:02 11° 354° (N) 20:10:27 145.980
YUBILEINY 23 Jul 20:07:39 20:13:52 20° 54° (NE) 20:20:03 435.215
GOMX 1 23 Jul 20:09:52 20:13:19 25° 267° (W) 20:16:52 467.674
CANX-2 23 Jul 20:14:37 20:18:46 51° 72° (ENE) 20:22:56 2200.000
DOVE 4 23 Jul 20:22:09 20:26:09 40° 263° (W) 20:30:22 437.250
Cubesat XI-IV 23 Jul 20:27:04 20:30:49 19° 270° (W) 20:34:36 437.490
CUTE 1.7 + AOD 2 23 Jul 20:28:45 20:32:59 62° 73° (ENE) 20:37:14 437.475
LilacSat-2 23 Jul 20:29:56 20:30:49 11° 273° (W) 20:31:44 437.200
AAUSAT CUBESAT 2 23 Jul 20:32:08 20:35:44 29° 67° (ENE) 20:39:20 437.432
STRAND 1 23 Jul 20:34:28 20:39:21 42° 98° (E) 20:44:10 437.568
CUBESAT XI-V 23 Jul 20:43:13 20:45:53 15° 301° (WNW) 20:48:33 437.345
UWE-3 23 Jul 20:45:58 20:49:51 28° 65° (ENE) 20:53:49 435.000/436.395/437.385
PHONESAT 2.4 23 Jul 20:51:09 20:53:11 16° 168° (SSE) 20:55:12 2401.200-2431.200
M-CUBED/EXP-1 PRIME 23 Jul 20:53:21 20:55:41 16° 52° (NE) 20:58:06 437.505
CUTE-I 23 Jul 20:54:34 20:56:13 11° 275° (W) 20:57:53 437.470
ZACube-1 23 Jul 20:55:52 20:59:31 24° 63° (ENE) 21:03:12 437.345
PCSat 23 Jul 20:55:57 21:00:59 40° 114° (ESE) 21:06:01 145.827
FUNcube-1 23 Jul 20:57:14 21:00:50 24° 63° (ENE) 21:04:29 145.935
NOAA 18 23 Jul 20:57:29 20:58:55 11° 275° (W) 21:00:20 137.9125
CUBEBUG 2 23 Jul 20:58:59 21:03:24 50° 71° (ENE) 21:07:58 437.445
CINEMA 3 23 Jul 21:02:07 21:06:28 53° 261° (W) 21:11:05 145.822/145.860
BEESAT 2 23 Jul 21:04:14 21:08:03 49° 123° (ESE) 21:11:56 435.950
BEESAT 3 23 Jul 21:05:59 21:09:55 90° 209° (SSW) 21:13:54 437.485
SEEDS 23 Jul 21:15:21 21:19:32 60° 259° (WSW) 21:23:45 437.485
AUBIESAT-1 23 Jul 21:21:57 21:25:03 23° 57° (ENE) 21:28:20 437.475
DELFI C3 23 Jul 21:28:32 21:31:36 21° 65° (ENE) 21:34:39 145.870
COMPASS 1 23 Jul 21:34:40 21:38:45 52° 260° (W) 21:42:52 437.405
Cosmos 2491 23 Jul 21:35:13 21:41:45 25° 78° (ENE) 21:48:17 435.465 / 435.565
HO-68 23 Jul 21:42:16 21:48:49 38° 264° (W) 21:55:27 435.675
Oscar 11 23 Jul 21:44:24 21:48:44 68° 74° (ENE) 21:53:05 145.826/435.025
AO-85 23 Jul 21:48:58 21:51:34 14° 19° (NNE) 21:54:04 145.980
CANX-2 23 Jul 21:51:56 21:54:55 18° 269° (W) 21:57:54 2200.000
O/OREOS (USA 219) 23 Jul 22:01:36 22:05:39 34° 106° (ESE) 22:09:42 437.305
YUBILEINY 23 Jul 22:03:31 22:12:25 76° 79° (ENE) 22:21:15 435.215
CUTE 1.7 + AOD 2 23 Jul 22:06:46 22:09:15 15° 271° (W) 22:11:44 437.475
AAUSAT CUBESAT 2 23 Jul 22:07:29 22:11:10 30° 265° (W) 22:14:52 437.432
PRISM 23 Jul 22:08:29 22:12:28 49° 101° (E) 22:16:26 437.425
STRAND 1 23 Jul 22:13:56 22:18:24 30° 297° (WNW) 22:22:48 437.568
UWE-3 23 Jul 22:21:56 22:26:10 38° 264° (W) 22:30:32 435.000/436.395/437.385
ESTCUBE 1 23 Jul 22:22:35 22:23:00 10° 54° (NE) 22:23:25 437.505/2401.250
Cosmos 2504 23 Jul 22:23:20 22:31:08 39° 67° (ENE) 22:38:22 435.465 / 435.565
M-CUBED/EXP-1 PRIME 23 Jul 22:25:59 22:29:41 65° 253° (WSW) 22:33:43 437.505
PHONESAT 2.4 23 Jul 22:26:49 22:29:05 19° 185° (S) 22:31:22 2401.200-2431.200
ZACube-1 23 Jul 22:31:14 22:35:33 44° 262° (W) 22:39:58 437.345
FUNcube-1 23 Jul 22:32:29 22:36:49 46° 262° (W) 22:41:14 145.935
AIST 2 23 Jul 22:32:47 22:36:04 23° 115° (ESE) 22:39:23 435.215
CUBEBUG 2 23 Jul 22:36:52 22:40:19 21° 269° (W) 22:43:52 437.445
PCSat 23 Jul 22:39:15 22:44:23 41° 314° (NW) 22:49:33 145.827
BEESAT 2 23 Jul 22:42:46 22:46:07 25° 322° (NW) 22:49:30 435.950
HUMSAT D 23 Jul 22:43:43 22:47:59 65° 74° (ENE) 22:52:17 437.325/437.525
ANTELSAT 23 Jul 22:44:05 22:46:24 13° 87° (E) 22:48:40 437.575/2403.000
BEESAT 3 23 Jul 22:45:28 22:48:10 18° 328° (NNW) 22:50:54 437.485
VELOX 1 23 Jul 22:54:12 22:56:02 12° 56° (NE) 22:57:51 145.980
AUBIESAT-1 23 Jul 22:55:49 22:59:19 37° 257° (WSW) 23:03:08 437.475
DELFI C3 23 Jul 23:02:30 23:06:15 38° 262° (W) 23:10:00 145.870
CUBEBUG 1 23 Jul 23:04:35 23:07:17 16° 60° (ENE) 23:10:00 437.445
SPROUT 23 Jul 23:19:31 23:19:44 10° 55° (NE) 23:19:56 437.525
Oscar 11 23 Jul 23:23:01 23:25:20 14° 271° (W) 23:27:41 145.826/435.025
TIGRISAT 23 Jul 23:25:33 23:29:44 31° 95° (E) 23:33:50 435.000
Cosmos 2491 23 Jul 23:28:49 23:37:33 83° 280° (W) 23:46:20 435.465 / 435.565
AO-85 23 Jul 23:28:52 23:33:17 43° 43° (NE) 23:37:19 145.980
AISAT 23 Jul 23:36:10 23:39:59 30° 65° (ENE) 23:43:49 437.250
UNISAT 6 23 Jul 23:40:25 23:44:56 45° 98° (E) 23:49:21 437.425
ISS 23 Jul 23:40:37 23:43:18 24° 142° (SE) 23:45:59 145.825
O/OREOS (USA 219) 23 Jul 23:41:05 23:45:04 31° 306° (NW) 23:49:05 437.305
PRISM 23 Jul 23:44:36 23:47:27 19° 298° (WNW) 23:50:18 437.425
DX 1 23 Jul 23:49:31 23:53:16 29° 65° (ENE) 23:57:02 434.975-435.025
50 SAT 23 Jul 23:52:56 23:56:21 37° 70° (ENE) 23:59:46 437.505
ESTCUBE 1 23 Jul 23:54:30 23:58:58 68° 72° (ENE) 00:03:27 437.505/2401.250
YUBILEINY 24 Jul 00:01:19 00:08:21 28° 281° (W) 00:15:21 435.215
PHONESAT 2.4 24 Jul 00:04:21 00:04:55 10° 201° (SSW) 00:05:29 2401.200-2431.200
NANOSAT C BR1 24 Jul 00:05:34 00:07:44 14° 89° (E) 00:09:54 145.865
UKube-1 24 Jul 00:10:12 00:14:09 37° 67° (ENE) 00:18:09 .
AIST 2 24 Jul 00:10:20 00:14:19 47° 314° (NW) 00:18:21 435.215
DUCHIFAT 1 24 Jul 00:11:33 00:13:58 15° 89° (E) 00:16:23 145.980
Cosmos 2504 24 Jul 00:16:45 00:24:48 53° 271° (W) 00:32:16 435.465 / 435.565
ANTELSAT 24 Jul 00:19:00 00:23:43 80° 286° (WNW) 00:28:19 437.575/2403.000
HUMSAT D 24 Jul 00:21:38 00:24:03 15° 271° (W) 00:26:29 437.325/437.525
QB50P1 24 Jul 00:24:47 00:28:11 22° 93° (E) 00:31:32 145.935-145.965
PCSat 24 Jul 00:26:24 00:29:18 14° 338° (NNW) 00:32:12 145.827
TISAT 1 24 Jul 00:27:02 00:28:59 13° 58° (ENE) 00:30:55 437.305
VELOX 1 24 Jul 00:27:25 00:31:48 87° 76° (ENE) 00:36:14 145.980
POPSAT HIP 1 24 Jul 00:30:44 00:34:19 25° 94° (E) 00:37:52 437.405
CUBEBUG 1 24 Jul 00:38:50 00:43:07 64° 258° (WSW) 00:47:26 437.445
AIST 1 24 Jul 00:41:18 00:44:26 19° 67° (ENE) 00:47:33
BUGSAT 1 24 Jul 00:42:03 00:44:21 14° 89° (E) 00:46:39 437.445
QB50P2 24 Jul 00:50:20 00:54:26 41° 98° (E) 00:58:29 145.880/145.840
SPROUT 24 Jul 00:50:37 00:54:53 73° 73° (ENE) 00:59:10 437.525
POLYITAN 1 24 Jul 00:52:59 00:57:05 42° 98° (E) 01:01:10 437.675
TIGRISAT 24 Jul 01:02:11 01:06:26 34° 294° (WNW) 01:10:35 435.000
AO-85 24 Jul 01:09:46 01:13:32 27° 245° (WSW) 01:17:03 145.980
AISAT 24 Jul 01:12:28 01:16:24 32° 264° (W) 01:20:23 437.250
ISS 24 Jul 01:16:13 01:19:29 76° 340° (NNW) 01:22:45 145.825
UNISAT 6 24 Jul 01:17:36 01:21:24 25° 297° (WNW) 01:25:09 437.425
DX 1 24 Jul 01:25:31 01:29:24 32° 264° (W) 01:33:19 434.975-435.025
50 SAT 24 Jul 01:27:31 01:30:08 18° 267° (W) 01:32:45 437.505
Cosmos 2491 24 Jul 01:29:32 01:35:55 22° 304° (NW) 01:42:20 435.465 / 435.565
JAS-2 24 Jul 01:33:36 01:38:19 33° 96° (E) 01:43:15 435.910
ESTCUBE 1 24 Jul 01:33:40 01:36:15 15° 271° (W) 01:38:50 437.505/2401.250
Cosmos 2499 24 Jul 01:36:36 01:39:00 11° 44° (NE) 01:41:22 435.465 / 435.565
NANOSAT C BR1 24 Jul 01:39:40 01:43:57 69° 287° (WNW) 01:48:12 145.865
DUCHIFAT 1 24 Jul 01:45:51 01:50:06 63° 288° (WNW) 01:54:19 145.980
UKube-1 24 Jul 01:46:45 01:50:18 25° 265° (W) 01:53:54 .
SWISSCUBE 24 Jul 01:50:20 01:54:05 23° 61° (ENE) 01:57:50 437.505
AIST 2 24 Jul 01:51:49 01:53:48 13° 336° (NNW) 01:55:47 435.215
ANTELSAT 24 Jul 01:57:41 01:59:37 12° 305° (NW) 02:01:33 437.575/2403.000
TISAT 1 24 Jul 01:59:49 02:04:01 82° 255° (WSW) 02:08:16 437.305
QB50P1 24 Jul 02:00:04 02:04:07 41° 291° (WNW) 02:08:09 145.935-145.965
POPSAT HIP 1 24 Jul 02:06:13 02:10:12 37° 292° (WNW) 02:14:09 437.405
VELOX 1 24 Jul 02:07:43 02:08:55 11° 273° (W) 02:10:06 145.980
GONETS M04 24 Jul 02:10:46 02:17:57 27° 60° (ENE) 02:25:07
BEESAT 24 Jul 02:11:34 02:15:47 31° 64° (ENE) 02:20:00 436.000
PCSat 24 Jul 02:14:26 02:15:15 10° 5° (N) 02:16:04 145.827
Cosmos 2504 24 Jul 02:15:11 02:15:58 10° 294° (WNW) 02:16:44 435.465 / 435.565
BUGSAT 1 24 Jul 02:15:55 02:20:09 66° 287° (WNW) 02:24:23 437.445
Gurwin Techsat 1B 24 Jul 02:17:44 02:19:49 12° 85° (E) 02:21:53 435.225
AIST 1 24 Jul 02:18:09 02:22:19 48° 266° (W) 02:26:30
QB50P2 24 Jul 02:26:36 02:30:01 23° 296° (WNW) 02:33:25 145.880/145.840
POLYITAN 1 24 Jul 02:29:16 02:32:40 23° 296° (WNW) 02:36:03 437.675
SPROUT 24 Jul 02:29:23 02:31:20 13° 272° (W) 02:33:19 437.525
ITUPSAT 1 24 Jul 02:31:44 02:36:19 46° 68° (ENE) 02:40:54 437.325
